Tracking 20232 objects as of 21-Jan-2020
HD Live streaming from Space Station
objects crossing your sky now

PERSEUS M2

Track PERSEUS M2 now!
10-day predictions
PERSEUS M2 is classified as:


NORAD ID: 40037
Int'l Code: 2014-033AD
Perigee: 604.9 km
Apogee: 627.0 km
Inclination: 97.9 °
Period: 96.9 minutes
Semi major axis: 6986 km
RCS: Unknown
Launch date: June 19, 2014
Source: Commonwealth of Independent States (former USSR) (CIS)
Launch site: Orenburg, Russia (OREN)

Uplink (MHz):
Downlink (MHz): 400.190/400.221
Beacon (MHz):
Mode: 9600bps GFSK
Call sign: CQ
Status:

aabbcc
Your satellite tracking list
Your tracking list is empty




NASA's NSSDC Master Catalog

Two Line Element Set (TLE):
1 40037U 14033AD  20021.44474285  .00000022  00000-0  87465-5 0  9997
2 40037  97.8913 298.8883 0015818  78.6809 281.6183 14.86509412303173
Source of the keplerian elements: AFSPC